Location: Eppenbrunn
(49.1158°N, 7.5601°E)
Time: 05:06:38
(UTC+00:00)

SL-08 RB Rocket - Pass Details

Date: 09 April 2020
Orbit: 646 x 685 km, 97.8° (Epoch: 29 May)

Event Time Altitude Azimuth Distance (km) Brightness Sun altitude
Exits shadow 18:56:19 - 155° (SSE) 2,993 6.6 -7.5°
Rises 18:56:19 0° 155° (SSE) 2,990 6.6 -7.5°
Reaches altitude 10° 18:58:32 10° 152° (SSE) 2,088 5.8 -7.8°
Maximum altitude 19:03:02 63° 73° (ENE) 755 3.8 -8.5°
Drops below altitude 10° 19:07:38 10° 352° (N) 2,127 6.8 -9.2°
Sets 19:09:54 0° 350° (N) 3,051 7.6 -9.6°
